This is the latest recevied weather packets stored in our database for station/object WA6GRA. If no packets are shown the sender has not sent any weather packets the latest 10 day(s).
| Time | Temp. | Humidity | Pressure | Rain* | Wind** | Luminosity | Snow |
|---|---|---|---|---|---|---|---|
| 1777586952 | 27.22° C | 39% | 1011.1 hPa | 0 mm | - | 693 W/m² | - |
| 1777586349 | 26.67° C | 41% | 1011.1 hPa | 0 mm | - | 722 W/m² | - |
| 1777585747 | 26.67° C | 41% | 1011.6 hPa | 0 mm | - | 751 W/m² | - |
| 1777585143 | 26.67° C | 44% | 1011.6 hPa | 0 mm | - | 761 W/m² | - |
| 1777584543 | 26.67° C | 44% | 1011.6 hPa | 0 mm | - | 788 W/m² | - |
| 1777583938 | 26.67° C | 44% | 1011.7 hPa | 0 mm | - | 800 W/m² | - |
| 1777583333 | 27.22° C | 43% | 1012 hPa | 0 mm | - | 824 W/m² | - |
| 1777582732 | 27.78° C | 45% | 1011.9 hPa | 0 mm | - | 838 W/m² | - |
| 1777582127 | 27.22° C | 42% | 1012.1 hPa | 0 mm | - | 839 W/m² | - |
| 1777581525 | 25.56° C | 45% | 1012.3 hPa | 0 mm | - | 862 W/m² | - |
| 1777580920 | 25.56° C | 43% | 1012.2 hPa | 0 mm | - | 880 W/m² | - |
| 1777580317 | 26.11° C | 45% | 1012.5 hPa | 0 mm | - | 884 W/m² | - |
| 1777579715 | 25.56° C | 46% | 1012.4 hPa | 0 mm | - | 890 W/m² | - |
| 1777579115 | 25° C | 48% | 1012.5 hPa | 0 mm | - | 892 W/m² | - |
| 1777578511 | 25° C | 49% | 1012.6 hPa | 0 mm | - | 891 W/m² | - |
| 1777577907 | 24.44° C | 49% | 1012.8 hPa | 0 mm | - | 894 W/m² | - |
| 1777577306 | 25° C | 50% | 1012.8 hPa | 0 mm | - | 887 W/m² | - |
| 1777576706 | 24.44° C | 50% | 1012.9 hPa | 0 mm | - | 884 W/m² | - |
| 1777576101 | 24.44° C | 51% | 1013.2 hPa | 0 mm | - | 865 W/m² | - |
| 1777575499 | 23.33° C | 53% | 1013.1 hPa | 0 mm | - | 864 W/m² | - |
| 1777574897 | 23.89° C | 54% | 1013.2 hPa | 0 mm | - | 856 W/m² | - |
| 1777574296 | 22.78° C | 55% | 1013.5 hPa | 0 mm | - | 842 W/m² | - |
| 1777573693 | 23.33° C | 54% | 1013.6 hPa | 0 mm | - | 827 W/m² | - |
| 1777573091 | 23.33° C | 55% | 1013.6 hPa | 0 mm | - | 811 W/m² | - |
| 1777572488 | 22.22° C | 57% | 1013.9 hPa | 0 mm | - | 795 W/m² | - |
* Rain latest hour (hover to see other rain measurements)
** Current wind speed in m/s (hover to see current wind gust speed)